EHI
0 1 1 1 1 2 3 3 2 1 0 0 0 0 0 0 0 0 0 0 0 0 0 0 0 0 0 0 0 0 0 0 0 0 0 0 0 0 0 0 0 0 0
0 2 4 4 3 3 4 4 3 1 0 0 0 0 0 0 0 0 0 0 0 0 0 0 0 0 0 0 0 0 0 0 0 0 0 0 0 0 0 0 0 0 0
2 5 7 7 6 6 6 7 6 3 1 1 1 1 0 0 0 0 0 0 0 0 0 0 0 0 0 0 0 0 0 0 0 0 0 1 1 1 1 0 0 0 0
5 7 10 10 9 9 10 10 9 6 2 2 2 2 1 0 0 0 0 0 0 0 0 0 0 0 0 0 0 0 0 1 2 1 1 2 2 2 1 0 0 0 0
6 7 10 10 9 10 13 14 13 9 5 3 3 3 1 0 0 0 0 0 0 0 0 0 0 0 0 0 0 0 1 2 3 3 2 3 3 3 1 0 0 0 0
6 7 8 8 8 10 15 17 16 13 9 5 3 3 2 1 0 0 0 0 0 0 0 0 0 0 0 0 0 1 1 3 3 3 2 2 2 2 1 0 0 0 0
7 8 7 6 7 11 16 18 18 16 12 8 5 3 2 1 0 0 0 0 0 0 0 0 0 0 0 0 1 3 3 3 2 2 2 1 1 1 0 0 0 0 0
8 8 8 7 8 11 15 17 16 15 14 12 7 4 3 1 1 1 0 0 0 0 0 0 0 0 0 2 3 4 3 2 1 1 1 2 1 0 0 1 1 1 0
7 8 9 8 8 10 13 15 14 14 14 13 8 4 3 2 2 1 0 0 0 0 0 1 1 1 2 4 4 3 2 0 0 1 3 4 3 1 1 2 2 2 1
6 7 8 8 8 9 12 13 12 13 13 12 9 5 3 3 2 2 1 0 0 1 1 2 3 3 3 3 3 1 0 0 0 2 4 5 5 3 2 2 3 3 3
6 5 6 6 7 10 12 12 11 12 12 11 10 7 5 5 4 3 3 2 1 2 3 3 4 4 3 1 1 0 0 0 0 1 3 4 5 5 4 3 4 4 4
6 5 4 6 8 11 13 13 12 12 11 11 9 8 8 8 7 6 5 4 3 3 3 3 3 3 2 1 0 0 0 0 0 0 1 3 4 4 5 5 5 6 7
6 5 6 7 9 12 14 15 14 12 11 11 10 10 10 11 9 6 5 4 4 3 3 3 3 3 1 1 1 1 1 1 1 0 1 2 3 4 5 6 7 7 8
6 7 8 9 10 11 14 16 15 12 12 12 12 12 12 12 9 5 3 2 2 2 3 4 4 2 1 0 1 2 3 3 3 1 1 3 3 4 5 7 8 8 9
6 8 9 10 10 10 13 15 14 13 15 16 15 13 12 10 8 5 2 1 2 2 3 5 4 2 1 1 2 3 4 5 5 5 4 4 4 4 6 7 9 10 11
6 7 9 10 10 11 12 14 14 15 19 21 18 14 12 9 7 6 5 5 6 7 6 4 3 3 1 1 1 3 4 5 6 7 8 7 6 6 7 7 8 9 10
8 8 8 10 12 13 14 16 17 19 24 25 20 16 13 11 9 8 9 10 11 12 10 6 4 3 1 0 0 2 4 4 4 6 7 7 7 7 8 7 7 7 7
11 9 9 11 14 15 17 19 21 23 25 25 22 17 15 14 12 12 13 13 13 14 13 9 6 4 2 0 0 1 3 4 3 3 4 5 6 6 7 7 7 7 6
11 10 11 12 13 15 17 19 21 22 24 25 24 20 17 17 15 15 15 13 12 12 11 8 5 4 2 1 0 0 1 1 1 1 1 2 3 4 4 5 7 7 7
10 11 13 13 13 14 16 18 17 18 20 23 23 20 19 18 17 16 16 13 11 9 8 6 5 4 2 1 0 0 0 0 0 0 0 0 1 2 2 3 6 7 7
9 11 13 14 13 14 15 15 14 14 15 17 17 17 17 17 16 16 14 11 9 9 8 7 5 4 2 0 0 0 0 0 0 1 1 1 0 0 0 2 4 5 4
6 8 11 12 12 13 13 13 12 13 13 14 14 15 17 16 15 14 12 10 9 8 9 8 6 3 1 0 0 0 0 0 0 1 2 2 1 0 0 0 1 1 1
4 7 9 10 9 9 10 10 9 11 14 14 15 16 17 16 15 14 11 9 9 9 9 9 7 4 1 0 0 0 0 0 0 1 1 1 1 0 0 0 0 0 0
4 6 8 9 8 7 7 7 8 11 15 16 16 16 17 16 15 14 12 10 9 9 10 10 8 5 1 0 0 0 0 0 0 0 0 0 0 0 0 0 0 0 0
4 5 7 8 8 7 7 6 7 11 16 18 17 16 16 16 15 14 11 9 9 9 9 9 8 5 2 0 0 0 0 0 0 0 0 0 0 0 0 0 0 0 0
5 5 6 8 9 8 7 6 7 12 17 19 18 17 16 16 16 14 11 7 7 8 8 8 7 4 2 0 0 0 0 0 0 0 0 0 0 0 0 0 0 0 0
Wind_Speed
7 5 6 6 5 5 5 5 5 4 4 2 2 2 1 1 0 1 2 2 3 3 3 2 2 2 2 2 2 2 2 1 1 1 1 1 1 2 2 2 2 3 4
5 6 6 6 6 6 6 5 5 5 4 3 2 2 2 1 1 1 0 1 3 3 3 3 2 2 2 2 3 2 2 1 1 2 1 2 3 2 1 1 2 3 2
10 9 8 8 7 7 8 7 6 5 4 4 3 2 2 1 1 0 0 1 2 2 2 3 3 3 3 3 3 3 3 2 1 1 2 1 1 2 2 1 1 2 2
10 9 9 8 9 9 7 6 6 5 5 5 4 4 3 2 2 1 1 1 1 1 2 3 3 3 3 3 3 3 3 3 2 1 1 1 2 1 2 2 1 1 2
11 11 11 11 9 8 7 6 6 5 5 5 5 5 3 2 1 1 1 0 0 1 1 2 3 3 3 3 3 3 3 3 3 2 1 1 1 1 1 2 3 2 2
10 10 9 8 7 7 7 7 6 6 5 5 5 5 5 4 3 2 1 1 0 0 1 2 2 3 2 3 3 3 4 3 3 2 2 2 2 2 2 2 2 3 3
9 9 9 10 9 9 9 8 8 7 6 6 5 5 5 5 5 3 3 2 1 1 1 1 1 1 2 3 3 3 3 4 3 3 2 2 2 2 2 2 2 2 2
8 9 10 10 10 10 9 9 8 7 6 6 6 5 5 4 3 3 3 3 2 2 2 2 2 2 2 2 2 2 2 2 3 3 3 2 2 2 2 2 2 1 2
8 9 9 9 9 10 10 10 10 8 7 7 5 4 5 4 4 3 3 3 2 2 2 2 2 2 2 2 3 2 2 2 2 3 2 2 2 2 2 2 2 2 2
6 6 7 8 8 8 8 8 8 8 7 7 6 6 5 5 4 3 4 3 3 3 3 3 3 2 2 2 2 2 2 2 2 2 2 2 2 2 2 2 2 3 3
6 6 6 6 7 7 8 8 7 7 6 6 6 5 4 4 4 4 4 4 3 3 3 3 3 3 2 2 2 2 2 2 1 1 2 2 2 1 1 2 2 2 2
5 5 5 5 6 7 7 8 8 7 7 6 5 5 4 4 4 4 4 3 3 3 3 3 3 3 3 3 3 3 2 2 2 2 2 2 1 2 2 1 2 2 3
4 4 4 5 6 7 6 7 7 8 7 6 6 5 5 5 5 4 3 3 2 2 2 3 3 3 3 3 3 3 2 2 2 2 2 2 2 2 2 2 2 2 2
4 4 4 4 5 6 6 6 7 7 7 6 6 6 6 6 5 4 3 3 3 3 3 3 3 3 3 3 3 3 3 2 2 2 2 3 3 3 3 2 2 2 1
3 4 4 4 4 4 5 5 5 5 6 6 6 6 5 4 4 4 3 3 3 3 3 3 3 3 2 3 3 3 3 3 2 2 2 3 3 4 3 2 2 2 2
4 4 4 4 4 4 5 5 5 6 6 6 6 5 5 5 4 4 4 4 3 3 3 3 3 3 2 3 4 3 3 3 3 2 2 2 3 3 3 3 3 3 3
2 3 4 4 4 4 5 5 6 5 6 6 5 5 5 5 5 5 4 4 4 3 3 3 3 3 2 3 3 4 3 2 2 2 2 2 2 1 1 1 2 2 3
1 1 2 2 3 3 4 4 4 5 5 5 5 5 5 5 4 4 4 4 3 4 4 3 3 3 3 3 4 3 2 2 2 3 3 2 2 2 1 1 1 2 2
1 1 2 2 2 2 3 4 4 4 5 5 5 5 5 5 5 4 4 4 4 3 3 3 4 3 3 4 4 3 2 1 2 2 2 2 2 2 2 1 1 2 3
1 0 1 2 2 1 3 4 4 4 4 5 5 4 4 5 5 5 4 3 3 3 3 2 2 3 3 3 4 3 2 1 1 1 1 1 2 2 2 2 2 2 3
1 1 2 2 1 2 3 3 3 4 4 4 4 4 4 5 5 4 3 3 3 3 2 2 2 2 2 3 4 4 3 3 2 1 1 1 1 1 1 1 2 3 2
2 2 2 1 0 2 4 3 3 3 2 3 3 3 3 4 3 4 3 3 3 3 3 2 1 1 1 2 3 3 3 3 2 2 1 1 1 1 0 0 1 1 1
1 1 1 1 1 1 3 3 2 1 1 3 3 3 3 3 3 4 4 3 3 3 3 3 2 1 1 1 2 3 3 3 2 1 2 2 1 1 1 1 1 1 1
1 1 1 1 1 0 1 3 2 1 2 2 2 2 3 2 2 2 3 3 3 3 3 3 3 2 2 1 1 1 1 2 1 1 2 2 1 1 1 1 1 1 0
1 0 0 1 2 1 1 1 2 3 3 2 2 2 2 2 2 1 1 2 2 4 4 4 3 4 3 3 4 3 2 2 2 2 1 1 1 1 1 1 1 1 1
1 0 0 1 2 1 1 1 1 3 3 2 2 2 2 2 2 2 1 2 1 1 3 4 4 2 3 4 4 3 3 4 4 3 1 1 1 1 1 1 1 1 1
Wind_Direction
207 190 184 173 162 164 166 171 168 164 147 137 144 141 181 196 204 221 212 201 187 174 166 162 153 146 148 151 140 128 119 111 108 88 16 337 292 250 239 234 233 239 238
196 189 185 177 176 178 176 177 179 171 169 164 156 151 151 173 207 236 225 199 182 179 177 167 166 161 150 144 144 134 125 118 116 121 86 352 340 334 277 243 231 242 241
199 194 190 189 184 186 186 189 187 178 175 160 130 109 82 61 61 36 283 244 193 187 180 172 166 168 163 172 174 164 156 164 160 148 147 150 261 312 316 281 259 255 245
197 193 192 192 193 195 187 185 181 178 174 162 156 155 162 179 201 198 216 250 173 175 179 176 173 177 175 180 188 179 171 166 180 175 180 180 169 188 313 319 310 283 258
196 193 194 196 196 189 181 182 174 178 176 173 173 167 172 181 168 145 162 204 146 166 171 170 172 177 180 186 188 178 178 176 178 177 168 148 132 176 206 288 315 317 281
197 194 190 186 188 180 176 175 173 182 180 177 177 177 177 174 166 177 194 221 207 166 176 171 175 183 184 193 197 192 187 188 186 181 175 170 172 192 197 238 277 294 293
191 187 183 185 187 183 182 178 176 187 185 183 187 188 183 177 181 189 194 193 192 204 229 198 187 192 196 196 191 185 191 190 188 190 195 194 202 186 185 204 252 277 291
190 190 189 188 189 187 183 178 180 189 186 188 194 190 184 181 189 192 188 193 202 213 213 195 190 197 193 191 174 180 197 190 198 205 197 200 216 196 193 193 199 273 292
188 190 186 183 183 184 184 182 181 187 188 189 188 189 189 189 193 193 190 197 203 206 200 191 194 203 194 184 168 176 198 191 200 208 203 210 224 207 206 200 191 203 264
179 176 178 179 179 181 180 177 179 187 190 187 189 198 198 195 191 188 198 203 207 200 183 188 194 196 193 185 169 185 207 194 211 209 201 217 229 224 210 206 207 206 217
180 178 175 174 167 165 169 174 176 181 188 190 190 196 195 191 187 195 205 204 207 197 194 191 188 187 188 188 177 195 202 204 224 222 206 233 228 229 233 213 205 208 203
174 169 159 155 162 172 176 179 183 186 190 186 181 189 187 183 186 197 205 203 206 202 196 183 183 191 193 192 187 204 210 205 220 224 211 242 237 228 238 223 222 218 210
146 144 148 164 173 177 179 181 184 187 186 179 179 185 187 186 191 197 197 193 193 190 189 181 190 200 197 194 196 203 217 219 221 220 217 237 231 251 256 243 238 237 228
154 153 162 178 182 177 180 184 188 184 179 178 180 186 192 193 194 191 189 191 189 188 200 194 192 196 197 202 200 195 204 214 225 228 225 229 227 234 242 245 241 238 242
159 171 179 188 187 183 186 185 187 182 177 174 182 189 191 185 177 174 180 187 189 200 199 192 192 195 197 209 198 195 200 207 220 236 237 235 234 234 235 237 230 224 237
184 185 180 183 192 191 189 181 183 184 175 181 189 184 179 180 181 183 178 180 187 190 189 194 191 198 217 211 200 192 198 207 215 234 254 257 253 249 245 238 232 220 226
184 188 194 194 199 197 186 183 184 178 175 181 184 180 179 184 190 192 182 184 189 184 191 199 192 199 214 204 197 189 188 204 222 233 243 258 270 254 261 264 268 261 245
173 201 201 202 201 183 175 170 162 167 175 180 183 184 182 187 184 181 187 192 187 188 192 194 196 196 213 196 189 178 169 186 222 233 229 232 254 257 234 242 301 293 282
204 189 197 198 187 166 160 141 150 162 170 182 185 185 181 184 181 185 195 198 187 189 190 189 187 185 202 190 181 168 163 186 228 236 229 225 242 256 214 187 253 294 301
21 92 122 125 122 153 140 135 149 164 183 195 196 182 179 184 187 191 194 196 183 183 173 170 183 185 192 183 169 162 160 200 242 265 268 241 229 244 215 205 223 265 286
35 62 81 104 159 141 131 149 165 191 199 187 188 184 185 191 186 179 178 174 170 160 161 163 165 174 191 185 179 179 187 201 209 225 269 283 190 208 236 214 241 255 266
36 65 85 69 36 124 135 153 204 219 187 163 173 180 190 198 182 168 167 165 166 166 171 166 163 155 188 195 200 190 191 188 188 206 224 222 178 178 120 92 301 297 307
14 50 108 96 34 136 153 173 234 225 153 149 164 174 187 197 181 170 172 171 169 175 184 177 185 195 191 192 190 185 182 175 176 189 177 179 165 140 78 11 357 14 25
337 358 74 86 350 286 193 198 204 160 142 157 173 168 171 179 168 164 172 177 184 185 187 187 190 195 193 200 202 191 173 154 145 155 150 148 138 99 51 26 8 351 317
300 328 227 235 259 270 255 228 172 151 153 170 181 171 169 168 151 136 155 191 202 197 191 195 189 188 202 217 204 186 180 178 176 144 118 95 68 26 357 349 340 336 336
206 168 319 292 292 284 269 251 181 163 160 171 182 179 172 168 163 149 84 42 133 168 185 187 181 192 197 178 183 183 164 151 143 125 148 184 209 235 255 273 294 295 298